MYSat 1 (44045 NORAD) Tracking and Keplerian Element Data

This shows tracking and keplerian element data for the satellite.

Feedback or suggestion? Click here.




ElementValue
Catalog44045
NameMYSat 1
Epoch Orbit2258
Epoch Day191.46573929
Epoch Year2019
RAAN265.4467
Inclination51.6423
Eccentricity0.0012469
Argument of Perigee160.9692
Mean Anonmoly199.1758
Mean Motion15.34998904
Decay Rate1.56E-05
L11 44045U 18092F 19191.46573929 .00001560 00000-0 56347-4 0 9994
L22 44045 51.6423 265.4467 0012469 160.9692 199.1758 15.34998904 22588

Live tracking and technical data element details for MYSat 1 (NORAD 44045). MYSat 1 can be tracked NOW for your location showing map with azimuth and elevation plus other details from your city location.

Track the satellite on the map from your city or location and see movement details for azimuth, elevation, latitude, longitude, range, height, and movement on the map or in text.







IsCatalogInMostPopularTable: catalog: 44045, numindb: 72
Update: records affected: 1



GetName: 44045 MYSat 1

Hit Count: updated at: Tue, 16 Jul 2019 14:03:18 GMT